Time[GMT],salinity[psu](1m),sigma_t[kg/m^3](1m),conductivity[msiemens/cm](1m),temperature[C](1m)
2015-06-06 17:00,31.750,24.456,34.676,9.75
2015-06-06 17:30,31.708,24.478,34.341,9.41
2015-06-06 18:00,31.873,24.660,34.207,9.07
2015-06-06 18:30,31.800,24.489,34.760,9.79
2015-06-06 19:00,31.813,24.435,35.113,10.18
2015-06-06 19:30,31.750,24.387,35.041,10.17
2015-06-06 20:00,31.769,24.392,35.112,10.23
2015-06-06 20:30,31.758,24.415,34.936,10.04
2015-06-06 21:00,31.742,24.424,34.807,9.91
2015-06-06 21:30,31.744,24.359,35.157,10.31
2015-06-06 22:00,31.705,24.336,35.084,10.27
2015-06-06 22:30,31.708,24.313,35.217,10.42
2015-06-06 23:00,31.701,24.417,34.637,9.76
2015-06-06 23:30,31.733,24.409,34.842,9.96
2015-06-07 00:00,31.741,24.449,34.667,9.75
2015-06-07 00:30,31.733,24.497,34.365,9.41
2015-06-07 01:00,31.728,24.402,34.854,9.98
2015-06-07 01:30,31.730,24.382,34.969,10.11
2015-06-07 02:00,31.716,24.354,35.042,10.21
2015-06-07 02:30,31.710,24.363,34.967,10.13
2015-06-07 03:00,31.725,24.424,34.721,9.83
2015-06-07 03:30,31.728,24.454,34.577,9.66
2015-06-07 04:00,31.734,24.472,34.504,9.57
2015-06-07 04:30,31.717,24.462,34.470,9.55
2015-06-07 05:00,31.723,24.488,34.364,9.42
2015-06-07 05:30,31.745,24.512,34.351,9.38
2015-06-07 06:00,31.757,24.541,34.250,9.25
2015-06-07 06:30,31.758,24.561,34.147,9.13
2015-06-07 07:00,31.764,24.581,34.067,9.03
2015-06-07 07:30,31.774,24.619,33.904,8.83
2015-06-07 08:00,31.773,24.632,33.825,8.74
2015-06-07 08:30,31.768,24.619,33.872,8.80
2015-06-07 09:00,31.739,24.592,33.870,8.83
2015-06-07 09:30,31.612,24.492,33.748,8.83
2015-06-07 10:00,31.569,24.454,33.732,8.86
2015-06-07 10:30,31.565,24.460,33.677,8.80
2015-06-07 11:00,31.580,24.472,33.692,8.80
2015-06-07 11:30,31.543,24.418,33.802,8.97
2015-06-07 12:00,31.620,24.473,33.902,9.00
2015-06-07 12:30,31.556,24.390,34.020,9.21
2015-06-07 13:00,31.527,24.361,34.026,9.25
2015-06-07 13:30,31.566,24.395,34.047,9.23
2015-06-07 14:00,31.626,24.442,34.105,9.23
2015-06-07 14:30,31.721,24.499,34.293,9.34
2015-06-07 15:00,31.649,24.406,34.421,9.57
2015-06-07 15:30,31.705,24.450,34.476,9.57
2015-06-07 16:00,31.486,24.190,34.736,10.12
2015-06-07 16:30,31.566,24.316,34.478,9.73
2015-06-07 17:00,31.895,24.623,34.532,9.42
2015-06-07 17:30,31.726,24.545,34.065,9.07
2015-06-07 18:00,31.647,24.240,35.287,10.57
2015-06-07 18:30,31.730,24.494,34.371,9.42
2015-06-07 19:00,31.705,24.427,34.597,9.71
2015-06-07 19:30,31.838,24.532,34.728,9.71
2015-06-07 20:00,31.897,24.622,34.542,9.43
2015-06-07 20:30,31.736,24.444,34.671,9.76
2015-06-07 21:00,31.834,24.486,34.950,9.97
2015-06-07 21:30,31.783,24.420,35.039,10.13
2015-06-07 22:00,31.685,24.350,34.907,10.09
2015-06-07 22:30,31.652,24.315,34.927,10.15
2015-06-07 23:00,31.664,24.312,34.999,10.22
2015-06-07 23:30,31.637,24.284,35.007,10.26
2015-06-08 00:00,31.654,24.286,35.085,10.33
2015-06-08 00:30,31.671,24.289,35.154,10.39
2015-06-08 01:00,31.677,24.317,35.038,10.25
2015-06-08 01:30,31.579,24.302,34.620,9.88
2015-06-08 02:00,31.598,24.302,34.717,9.97
2015-06-08 02:30,31.608,24.321,34.666,9.90
2015-06-08 03:00,31.635,24.358,34.606,9.80
2015-06-08 03:30,31.655,24.416,34.401,9.54
2015-06-08 04:00,31.671,24.461,34.235,9.33
2015-06-08 04:30,31.678,24.484,34.147,9.22
2015-06-08 05:00,31.706,24.538,33.993,9.01
2015-06-08 05:30,31.693,24.508,34.093,9.14
2015-06-08 06:00,31.722,24.545,34.043,9.05
2015-06-08 06:30,31.728,24.565,33.963,8.95
2015-06-08 07:00,31.713,24.535,34.052,9.07
2015-06-08 07:30,31.736,24.564,34.014,9.00
2015-06-08 08:00,31.731,24.560,34.009,9.00
2015-06-08 08:30,31.730,24.556,34.025,9.02
2015-06-08 09:00,31.727,24.571,33.928,8.91
2015-06-08 09:30,31.722,24.586,33.811,8.78
2015-06-08 10:00,31.716,24.595,33.728,8.69
2015-06-08 10:30,31.702,24.579,33.740,8.72
2015-06-08 11:00,31.693,24.577,33.706,8.69
2015-06-08 11:30,31.646,24.513,33.815,8.87
2015-06-08 12:00,31.633,24.515,33.734,8.79
2015-06-08 12:30,31.626,24.511,33.719,8.78
2015-06-08 13:00,31.626,24.550,33.496,8.52
2015-06-08 13:30,31.662,24.593,33.445,8.42
2015-06-08 14:00,31.682,24.622,33.387,8.33
2015-06-08 14:30,31.709,24.650,33.369,8.28
2015-06-08 15:00,31.730,24.665,33.398,8.29
2015-06-08 15:30,31.738,24.674,33.388,8.27
2015-06-08 16:00,31.736,24.660,33.464,8.36
2015-06-08 16:30,31.760,24.671,33.529,8.41
2015-06-08 17:00,31.788,24.703,33.496,8.34
2015-06-08 17:30,31.798,24.710,33.514,8.35
2015-06-08 18:00,31.808,24.725,33.481,8.30
2015-06-08 18:30,31.838,24.773,33.363,8.13
2015-06-08 19:00,31.844,24.772,33.403,8.17
2015-06-08 19:30,31.848,24.771,33.433,8.20
2015-06-08 20:00,31.857,24.778,33.441,8.20
2015-06-08 20:30,31.876,24.807,33.373,8.10
2015-06-08 21:00,31.873,24.815,33.310,8.03
2015-06-08 21:30,31.862,24.817,33.231,7.95
2015-06-08 22:00,31.850,24.817,33.169,7.89
2015-06-08 22:30,31.843,24.815,33.136,7.86
2015-06-08 23:00,31.840,24.812,33.142,7.87
2015-06-08 23:30,31.823,24.791,33.169,7.92
2015-06-09 00:00,31.814,24.773,33.229,8.00
2015-06-09 00:30,31.784,24.734,33.295,8.11
2015-06-09 01:00,31.712,24.655,33.355,8.26
2015-06-09 01:30,31.702,24.642,33.380,8.30
2015-06-09 02:00,31.709,24.648,33.387,8.30
2015-06-09 02:30,31.706,24.643,33.392,8.31
2015-06-09 03:00,31.735,24.675,33.368,8.25
2015-06-09 03:30,31.746,24.691,33.336,8.20
2015-06-09 04:00,31.774,24.721,33.311,8.14
2015-06-09 04:30,31.780,24.729,33.300,8.12
2015-06-09 05:00,31.792,24.742,33.285,8.09
2015-06-09 05:30,31.803,24.756,33.270,8.06
2015-06-09 06:00,31.810,24.766,33.251,8.03
2015-06-09 06:30,31.812,24.767,33.253,8.03
2015-06-09 07:00,31.803,24.757,33.261,8.05
2015-06-09 07:30,31.788,24.738,33.290,8.10
2015-06-09 08:00,31.764,24.714,33.302,8.14
2015-06-09 08:30,31.705,24.651,33.340,8.25
2015-06-09 09:00,31.653,24.602,33.342,8.31
2015-06-09 09:30,31.637,24.590,33.327,8.31
2015-06-09 10:00,31.607,24.508,33.632,8.70
2015-06-09 10:30,31.409,24.263,33.946,9.29
2015-06-09 11:00,31.308,24.160,33.975,9.44
2015-06-09 11:30,31.174,24.034,33.964,9.58
2015-06-09 12:00,31.144,24.010,33.934,9.58
2015-06-09 12:30,31.123,23.989,33.939,9.61
2015-06-09 13:00,31.181,24.051,33.911,9.51
2015-06-09 13:30,31.278,24.168,33.775,9.24
2015-06-09 14:00,31.308,24.209,33.711,9.13
2015-06-09 14:30,31.322,24.220,33.724,9.13
2015-06-09 15:00,31.383,24.283,33.698,9.03
2015-06-09 15:30,31.463,24.367,33.656,8.89
2015-06-09 16:00,31.481,24.374,33.707,8.93
2015-06-09 16:30,31.457,24.345,33.744,9.00
2015-06-09 17:00,31.450,24.335,33.763,9.03
2015-06-09 17:30,31.435,24.318,33.783,9.07
2015-06-09 18:00,31.427,24.301,33.835,9.14
2015-06-09 18:30,31.453,24.321,33.860,9.14
2015-06-09 19:00,31.500,24.369,33.846,9.07
2015-06-09 19:30,31.529,24.397,33.839,9.03
2015-06-09 20:00,31.556,24.430,33.797,8.95
2015-06-09 20:30,31.570,24.447,33.776,8.91
2015-06-09 21:00,31.576,24.451,33.791,8.92
2015-06-09 21:30,31.578,24.454,33.784,8.91
2015-06-09 22:00,31.549,24.417,33.833,9.00
2015-06-09 22:30,31.526,24.403,33.794,8.98
2015-06-09 23:00,31.519,24.401,33.761,8.95
2015-06-09 23:30,31.493,24.374,33.779,9.00
2015-06-10 00:00,31.494,24.376,33.771,8.99
2015-06-10 00:30,31.504,24.385,33.772,8.98
2015-06-10 01:00,31.485,24.361,33.805,9.04
2015-06-10 01:30,31.465,24.338,33.829,9.09
2015-06-10 02:00,31.504,24.374,33.832,9.05
2015-06-10 02:30,31.520,24.393,33.814,9.01
2015-06-10 03:00,31.518,24.396,33.786,8.98
2015-06-10 03:30,31.425,24.289,33.884,9.20
2015-06-10 04:00,31.472,24.349,33.801,9.05
2015-06-10 04:30,31.394,24.254,33.914,9.27
2015-06-10 05:00,31.342,24.196,33.957,9.38
2015-06-10 05:30,31.328,24.181,33.969,9.41
2015-06-10 06:00,31.313,24.163,33.989,9.45
2015-06-10 06:30,31.319,24.169,33.986,9.44
2015-06-10 07:00,31.322,24.173,33.981,9.43
2015-06-10 07:30,31.343,24.199,33.950,9.37
2015-06-10 08:00,31.300,24.148,34.002,9.48
2015-06-10 08:30,31.292,24.139,34.011,9.50
2015-06-10 09:00,31.279,24.131,33.981,9.48
2015-06-10 09:30,31.286,24.147,33.937,9.42
2015-06-10 10:00,31.293,24.160,33.901,9.37
2015-06-10 10:30,31.175,23.999,34.152,9.80
2015-06-10 11:00,31.166,23.995,34.126,9.78
2015-06-10 11:30,31.172,24.007,34.098,9.74
2015-06-10 12:00,31.202,24.025,34.153,9.77
2015-06-10 12:30,31.217,24.036,34.177,9.78
2015-06-10 13:00,31.225,24.033,34.227,9.83
2015-06-10 13:30,31.248,24.032,34.353,9.95
2015-06-10 14:00,31.245,24.035,34.324,9.92
2015-06-10 14:30,31.264,24.030,34.446,10.04
2015-06-10 15:00,31.312,24.081,34.425,9.96
2015-06-10 15:30,31.338,24.132,34.288,9.77
2015-06-10 16:00,31.367,24.181,34.170,9.60
2015-06-10 16:30,31.367,24.154,34.316,9.77
2015-06-10 17:00,31.394,24.157,34.437,9.88
2015-06-10 17:30,31.453,24.231,34.349,9.71
2015-06-10 18:00,31.459,24.213,34.476,9.85
2015-06-10 18:30,31.506,24.274,34.393,9.70
2015-06-10 19:00,31.539,24.318,34.331,9.59
2015-06-10 19:30,31.550,24.307,34.445,9.71
2015-06-10 20:00,31.543,24.301,34.438,9.71
2015-06-10 20:30,31.571,24.318,34.491,9.74
2015-06-10 21:00,31.591,24.358,34.382,9.59
2015-06-10 21:30,31.580,24.333,34.457,9.69
2015-06-10 22:00,31.628,24.365,34.539,9.73
2015-06-10 22:30,31.668,24.410,34.500,9.64
2015-06-10 23:00,31.719,24.501,34.274,9.32
2015-06-10 23:30,31.703,24.463,34.396,9.48
2015-06-11 00:00,31.688,24.462,34.321,9.41
2015-06-11 00:30,31.591,24.369,34.321,9.52
2015-06-11 01:00,31.637,24.452,34.107,9.22
2015-06-11 01:30,31.541,24.290,34.488,9.77
2015-06-11 02:00,31.587,24.390,34.188,9.37
2015-06-11 02:30,31.497,24.268,34.375,9.69
2015-06-11 03:00,31.489,24.242,34.480,9.82
2015-06-11 03:30,31.474,24.220,34.516,9.88
2015-06-11 04:00,31.434,24.189,34.477,9.88
2015-06-11 04:30,31.466,24.233,34.405,9.76
2015-06-11 05:00,31.459,24.221,34.433,9.80
2015-06-11 05:30,31.429,24.181,34.489,9.90
2015-06-11 06:00,31.394,24.138,34.541,10.00
2015-06-11 06:30,31.409,24.179,34.401,9.82
2015-06-11 07:00,31.413,24.208,34.267,9.66
2015-06-11 07:30,31.427,24.222,34.264,9.64
2015-06-11 08:00,31.481,24.310,34.067,9.35
2015-06-11 08:30,31.493,24.335,33.993,9.25
2015-06-11 09:00,31.503,24.350,33.960,9.20
2015-06-11 09:30,31.530,24.381,33.935,9.14
2015-06-11 10:00,31.546,24.400,33.916,9.10
2015-06-11 10:30,31.552,24.401,33.939,9.12
2015-06-11 11:00,31.574,24.423,33.935,9.09
2015-06-11 11:30,31.580,24.427,33.940,9.09
2015-06-11 12:00,31.576,24.422,33.954,9.11
2015-06-11 12:30,31.425,24.198,34.382,9.78
2015-06-11 13:00,31.442,24.216,34.373,9.75
2015-06-11 13:30,31.533,24.347,34.135,9.37
2015-06-11 14:00,31.575,24.391,34.116,9.30
2015-06-11 14:30,31.500,24.277,34.344,9.65
2015-06-11 15:00,31.438,24.171,34.593,10.01
2015-06-11 15:30,31.394,24.133,34.567,10.03
2015-06-11 16:00,31.390,24.122,34.606,10.08
2015-06-11 16:30,31.377,24.088,34.713,10.22
2015-06-11 17:00,31.355,24.063,34.735,10.27
2015-06-11 17:30,31.310,23.990,34.888,10.50
2015-06-11 18:00,31.292,23.981,34.844,10.47
2015-06-11 18:30,31.270,23.955,34.865,10.52
2015-06-11 19:00,31.235,23.904,34.950,10.66
2015-06-11 19:30,31.213,23.875,34.988,10.73
2015-06-11 20:00,31.213,23.872,35.006,10.75
2015-06-11 20:30,31.211,23.858,35.064,10.82
2015-06-11 21:00,31.200,23.842,35.087,10.86
2015-06-11 21:30,31.190,23.826,35.120,10.91
2015-06-11 22:00,31.185,23.821,35.124,10.92
2015-06-11 22:30,31.174,23.812,35.113,10.92
2015-06-11 23:00,31.153,23.789,35.126,10.96
2015-06-11 23:30,31.160,23.802,35.099,10.92
2015-06-12 00:00,31.181,23.831,35.051,10.84
2015-06-12 00:30,31.191,23.849,35.009,10.78
2015-06-12 01:00,31.203,23.861,35.013,10.77
2015-06-12 01:30,31.239,23.888,35.049,10.77
2015-06-12 02:00,31.255,23.894,35.100,10.81
2015-06-12 02:30,31.274,23.929,35.015,10.69
2015-06-12 03:00,31.278,23.948,34.942,10.60
2015-06-12 03:30,31.350,24.051,34.773,10.32
2015-06-12 04:00,31.543,24.307,34.403,9.67
2015-06-12 04:30,31.510,24.268,34.449,9.76
2015-06-12 05:00,31.499,24.243,34.524,9.86
2015-06-12 05:30,31.487,24.215,34.607,9.97
2015-06-12 06:00,31.517,24.255,34.550,9.87
2015-06-12 06:30,31.524,24.262,34.549,9.86
2015-06-12 07:00,31.516,24.249,34.575,9.90
2015-06-12 07:30,31.528,24.262,34.570,9.88
2015-06-12 08:00,31.529,24.264,34.562,9.87
2015-06-12 08:30,31.542,24.283,34.532,9.82
2015-06-12 09:00,31.561,24.303,34.525,9.79
2015-06-12 09:30,31.579,24.299,34.638,9.90
2015-06-12 10:00,31.578,24.314,34.550,9.80
2015-06-12 10:30,31.587,24.300,34.671,9.93
2015-06-12 11:00,31.602,24.307,34.712,9.96
2015-06-12 11:30,31.619,24.316,34.746,9.98
2015-06-12 12:00,31.625,24.315,34.787,10.02
2015-06-12 12:30,31.646,24.327,34.834,10.05
2015-06-12 13:00,31.657,24.328,34.879,10.09
2015-06-12 13:30,31.669,24.327,34.943,10.15
2015-06-12 14:00,31.660,24.313,34.978,10.20
2015-06-12 14:30,31.706,24.338,35.076,10.26
2015-06-12 15:00,31.713,24.337,35.118,10.30
2015-06-12 15:30,31.560,24.190,35.113,10.47
2015-06-12 16:00,31.554,24.161,35.228,10.61
2015-06-12 16:30,31.544,24.131,35.331,10.74
2015-06-12 17:00,31.536,24.099,35.454,10.89
2015-06-12 17:30,31.538,24.095,35.482,10.92
2015-06-12 18:00,31.563,24.144,35.359,10.75
2015-06-12 18:30,31.561,24.105,35.549,10.97
2015-06-12 19:00,31.513,24.058,35.543,11.02
2015-06-12 19:30,31.548,24.043,35.788,11.26
2015-06-12 20:00,31.527,24.064,35.584,11.05
2015-06-12 20:30,31.588,24.046,35.969,11.42
2015-06-12 21:00,31.592,24.080,35.825,11.25
2015-06-12 21:30,31.631,24.115,35.838,11.22
2015-06-12 22:00,31.643,24.152,35.710,11.06
2015-06-12 22:30,31.637,24.139,35.748,11.11
2015-06-12 23:00,31.595,24.085,35.810,11.23
2015-06-12 23:30,31.572,24.089,35.682,11.11
2015-06-13 00:00,31.550,24.045,35.791,11.26
2015-06-13 00:30,31.617,24.103,35.833,11.23
2015-06-13 01:00,31.548,24.012,35.946,11.44
2015-06-13 01:30,31.639,24.160,35.654,11.00
2015-06-13 02:00,31.606,24.125,35.664,11.05
2015-06-13 02:30,31.621,24.130,35.714,11.09
2015-06-13 03:00,31.635,24.146,35.702,11.06
2015-06-13 03:30,31.705,24.238,35.590,10.85
2015-06-13 04:00,31.615,24.146,35.603,10.97
2015-06-13 04:30,31.602,24.138,35.581,10.96
2015-06-13 05:00,31.175,23.802,35.165,10.98
2015-06-13 05:30,31.194,23.828,35.133,10.92
2015-06-13 06:00,31.415,24.006,35.322,10.88
2015-06-13 06:30,31.595,24.183,35.322,10.67
2015-06-13 07:00,31.497,24.123,35.136,10.57
2015-06-13 07:30,31.684,24.294,35.193,10.42
2015-06-13 08:00,31.745,24.399,34.958,10.08
2015-06-13 08:30,31.775,24.451,34.831,9.90
2015-06-13 09:00,31.719,24.409,34.767,9.89
2015-06-13 09:30,31.672,24.371,34.729,9.90
2015-06-13 10:00,31.654,24.355,34.720,9.91
2015-06-13 10:30,31.657,24.361,34.706,9.89
2015-06-13 11:00,31.691,24.383,34.766,9.92
2015-06-13 11:30,31.704,24.393,34.778,9.92
2015-06-13 12:00,31.732,24.415,34.806,9.92
2015-06-13 12:30,31.725,24.389,34.903,10.04
2015-06-13 13:00,31.708,24.335,35.104,10.29
2015-06-13 13:30,31.691,24.327,35.061,10.26
2015-06-13 14:00,31.699,24.286,35.313,10.54
2015-06-13 14:30,31.624,24.129,35.735,11.11
2015-06-13 15:00,31.501,24.028,35.636,11.14
2015-06-13 15:30,31.453,23.948,35.796,11.38
2015-06-13 16:00,31.461,23.964,35.761,11.33
2015-06-13 16:30,31.409,23.884,35.899,11.55
2015-06-13 17:00,31.431,23.908,35.887,11.51
2015-06-13 17:30,31.456,23.948,35.817,11.40
2015-06-13 18:00,31.459,23.947,35.828,11.41
2015-06-13 18:30,31.460,23.955,35.794,11.37
2015-06-13 19:00,31.483,23.972,35.827,11.38
2015-06-13 19:30,31.514,23.991,35.885,11.41
2015-06-13 20:00,31.571,24.058,35.829,11.28
2015-06-13 20:30,31.593,24.071,35.869,11.30
2015-06-13 21:00,31.638,24.124,35.828,11.20
2015-06-13 21:30,31.689,24.194,35.731,11.03
2015-06-13 22:00,31.713,24.207,35.782,11.06
2015-06-13 22:30,31.712,24.189,35.868,11.16
2015-06-13 23:00,31.735,24.219,35.830,11.09
2015-06-13 23:30,31.762,24.261,35.752,10.97
2015-06-14 00:00,31.778,24.278,35.742,10.94
2015-06-14 00:30,31.794,24.289,35.767,10.95
2015-06-14 01:00,31.773,24.280,35.711,10.91
2015-06-14 01:30,31.748,24.244,35.764,11.00
2015-06-14 02:00,31.641,24.107,35.927,11.31
2015-06-14 02:30,31.499,23.988,35.826,11.36
2015-06-14 03:00,31.425,23.956,35.619,11.21
2015-06-14 03:30,31.417,23.966,35.533,11.12
2015-06-14 04:00,31.401,23.922,35.673,11.30
2015-06-14 04:30,31.385,23.894,35.735,11.39
2015-06-14 05:00,31.367,23.844,35.891,11.59
2015-06-14 05:30,31.396,23.897,35.773,11.42
2015-06-14 06:00,31.433,23.953,35.680,11.27
2015-06-14 06:30,31.467,24.005,35.584,11.12
2015-06-14 07:00,31.424,23.970,35.549,11.13
2015-06-14 07:30,31.430,23.978,35.537,11.11
2015-06-14 08:00,31.429,23.988,35.484,11.05
2015-06-14 08:30,31.434,24.002,35.437,10.99
2015-06-14 09:00,31.439,24.013,35.407,10.95
2015-06-14 09:30,31.431,24.001,35.425,10.98
2015-06-14 10:00,31.378,23.929,35.528,11.16
2015-06-14 10:30,31.377,23.921,35.562,11.20
2015-06-14 11:00,31.385,23.922,35.596,11.23
2015-06-14 11:30,31.411,23.963,35.518,11.11
2015-06-14 12:00,31.457,24.018,35.469,11.00
2015-06-14 12:30,31.404,23.878,35.903,11.56
2015-06-14 13:00,31.457,23.916,35.975,11.58
2015-06-14 13:30,31.476,23.913,36.082,11.68
2015-06-14 14:00,31.533,23.956,36.140,11.68
2015-06-14 14:30,31.579,24.014,36.083,11.56
2015-06-14 15:00,31.676,24.050,36.376,11.78
2015-06-14 15:30,31.704,24.082,36.352,11.72
2015-06-14 16:00,31.724,24.074,36.487,11.85
2015-06-14 16:30,31.615,23.998,36.330,11.80
2015-06-14 17:00,31.398,23.821,36.150,11.85
2015-06-14 17:30,31.446,23.738,36.770,12.50
2015-06-14 18:00,31.514,23.702,37.247,12.96
2015-06-14 18:30,31.481,23.668,37.247,13.00
2015-06-14 19:00,31.447,23.590,37.450,13.27
2015-06-14 19:30,31.496,23.673,37.299,13.04
2015-06-14 20:00,31.603,23.837,37.041,12.62
2015-06-14 20:30,31.665,23.905,37.009,12.51
2015-06-14 21:00,31.709,23.945,37.028,12.48
2015-06-14 21:30,31.719,23.976,36.933,12.36
2015-06-14 22:00,31.720,23.984,36.898,12.32
2015-06-14 22:30,31.764,24.061,36.741,12.09
2015-06-14 23:00,31.775,24.086,36.673,12.00
2015-06-14 23:30,31.796,24.100,36.703,12.01
2015-06-15 00:00,31.794,24.102,36.683,11.99
2015-06-15 00:30,31.788,24.102,36.660,11.97
2015-06-15 01:00,31.777,24.091,36.657,11.98
2015-06-15 01:30,31.770,24.078,36.685,12.02
2015-06-15 02:00,31.757,24.072,36.654,12.00
2015-06-15 02:30,31.715,24.017,36.716,12.12
2015-06-15 03:00,31.732,23.995,36.902,12.31
2015-06-15 03:30,31.728,24.061,36.571,11.94
2015-06-15 04:00,31.676,24.025,36.490,11.91
2015-06-15 04:30,31.625,24.005,36.350,11.81
2015-06-15 05:00,31.604,24.028,36.135,11.59
2015-06-15 05:30,31.638,24.090,35.994,11.39
2015-06-15 06:00,31.531,23.982,36.007,11.53
2015-06-15 06:30,31.482,23.923,36.062,11.65
2015-06-15 07:00,31.466,23.883,36.176,11.80
2015-06-15 07:30,31.346,23.815,35.930,11.66
2015-06-15 08:00,31.328,23.779,36.016,11.78
2015-06-15 08:30,31.399,23.824,36.142,11.84
2015-06-15 09:00,31.404,23.835,36.112,11.80
2015-06-15 09:30,31.462,23.878,36.181,11.81
2015-06-15 10:00,31.323,23.772,36.028,11.80
2015-06-15 10:30,31.390,23.847,35.984,11.67
2015-06-15 11:00,31.326,23.765,36.075,11.85
2015-06-15 11:30,31.480,23.978,35.780,11.33
2015-06-15 12:00,31.404,23.885,35.868,11.52
2015-06-15 12:30,31.397,23.862,35.948,11.62
2015-06-15 13:00,31.417,23.892,35.899,11.54
2015-06-15 13:30,31.440,23.906,35.940,11.56
2015-06-15 14:00,31.500,23.997,35.783,11.31
2015-06-15 14:30,31.551,24.055,35.748,11.21
2015-06-15 15:00,31.572,24.087,35.691,11.12
2015-06-15 15:30,31.601,24.118,35.676,11.07
2015-06-15 16:00,31.591,24.102,35.710,11.12
2015-06-15 16:30,31.547,24.018,35.910,11.40
2015-06-15 17:00,31.467,23.936,35.924,11.51
2015-06-15 17:30,31.481,23.945,35.947,11.52
2015-06-15 18:00,31.453,23.862,36.215,11.86
2015-06-15 18:30,31.444,23.853,36.215,11.87
2015-06-15 19:00,31.447,23.866,36.165,11.81
2015-06-15 19:30,31.432,23.856,36.141,11.80
2015-06-15 20:00,31.434,23.843,36.213,11.88
2015-06-15 20:30,31.421,23.824,36.243,11.93
2015-06-15 21:00,31.414,23.813,36.262,11.96
2015-06-15 21:30,31.404,23.802,36.270,11.98
2015-06-15 22:00,31.394,23.796,36.250,11.97
2015-06-15 22:30,31.388,23.791,36.244,11.97
2015-06-15 23:00,31.372,23.774,36.254,12.00
2015-06-15 23:30,31.366,23.772,36.230,11.98
2015-06-16 00:00,31.363,23.755,36.297,12.06
2015-06-16 00:30,31.363,23.748,36.332,12.10
2015-06-16 01:00,31.355,23.745,36.306,12.08
2015-06-16 01:30,31.352,23.755,36.251,12.02
2015-06-16 02:00,31.348,23.753,36.238,12.01
2015-06-16 02:30,31.353,23.775,36.155,11.91
2015-06-16 03:00,31.357,23.786,36.125,11.87
2015-06-16 03:30,31.355,23.808,36.009,11.74
2015-06-16 04:00,31.357,23.803,36.037,11.77
2015-06-16 04:30,31.369,23.826,35.989,11.70
2015-06-16 05:00,31.364,23.829,35.949,11.66
2015-06-16 05:30,31.367,23.844,35.891,11.59
2015-06-16 06:00,31.370,23.852,35.868,11.56
2015-06-16 06:30,31.367,23.850,35.865,11.56
2015-06-16 07:00,31.365,23.850,35.854,11.55
2015-06-16 07:30,31.370,23.861,35.824,11.51
2015-06-16 08:00,31.373,23.872,35.784,11.46
2015-06-16 08:30,31.373,23.883,35.732,11.40
2015-06-16 09:00,31.373,23.886,35.714,11.38
2015-06-16 09:30,31.363,23.880,35.695,11.37
2015-06-16 10:00,31.372,23.892,35.678,11.34
2015-06-16 10:30,31.384,23.915,35.630,11.27
2015-06-16 11:00,31.406,23.926,35.678,11.30
2015-06-16 11:30,31.498,23.973,35.895,11.44
2015-06-16 12:00,31.523,24.027,35.745,11.24
2015-06-16 12:30,31.528,24.039,35.716,11.20
2015-06-16 13:00,31.526,24.042,35.687,11.17
2015-06-16 13:30,31.516,24.019,35.756,11.26
2015-06-16 14:00,31.512,24.016,35.752,11.26
2015-06-16 14:30,31.521,24.016,35.796,11.30
2015-06-16 15:00,31.519,24.002,35.855,11.37
2015-06-16 15:30,31.511,23.981,35.917,11.45
2015-06-16 16:00,31.506,23.954,36.025,11.58
2015-06-16 16:30,31.441,23.894,36.002,11.63
2015-06-16 17:00,31.389,23.832,36.053,11.75
2015-06-16 17:30,31.380,23.820,36.070,11.78
2015-06-16 18:00,31.376,23.813,36.083,11.80
2015-06-16 18:30,31.383,23.802,36.169,11.89
2015-06-16 19:00,31.345,23.800,35.999,11.74
2015-06-16 19:30,31.368,23.772,36.241,11.99
2015-06-16 20:00,31.302,23.717,36.190,12.01
2015-06-16 20:30,31.300,23.726,36.135,11.95
2015-06-16 21:00,31.269,23.721,36.016,11.85
2015-06-16 21:30,31.358,23.894,35.603,11.27
2015-06-16 22:00,31.331,23.843,35.723,11.44
2015-06-16 22:30,31.320,23.802,35.868,11.62
2015-06-16 23:00,31.324,23.787,35.960,11.72
2015-06-16 23:30,31.259,23.697,36.084,11.94
2015-06-17 00:00,31.390,23.847,35.984,11.67
2015-06-17 00:30,31.349,23.809,35.977,11.71
2015-06-17 01:00,31.381,23.864,35.862,11.54
2015-06-17 01:30,31.396,23.887,35.825,11.48
2015-06-17 02:00,31.395,23.889,35.806,11.46
2015-06-17 02:30,31.392,23.885,35.812,11.47
2015-06-17 03:00,31.424,23.923,35.784,11.40
2015-06-17 03:30,31.386,23.857,35.919,11.60
2015-06-17 04:00,31.384,23.864,35.873,11.55
2015-06-17 04:30,31.420,23.917,35.788,11.41
2015-06-17 05:00,31.386,23.850,35.954,11.64
2015-06-17 05:30,31.388,23.843,36.000,11.69
2015-06-17 06:00,31.401,23.879,35.882,11.54
2015-06-17 06:30,31.399,23.883,35.854,11.51
2015-06-17 07:00,31.404,23.940,35.598,11.21
2015-06-17 07:30,31.387,23.950,35.468,11.08
2015-06-17 08:00,31.387,23.957,35.433,11.04
2015-06-17 08:30,31.381,23.949,35.444,11.06
2015-06-17 09:00,31.388,23.958,35.434,11.04
2015-06-17 09:30,31.393,23.965,35.422,11.02
2015-06-17 10:00,31.389,23.953,35.461,11.07
2015-06-17 10:30,31.396,23.973,35.399,10.99
2015-06-17 11:00,31.393,23.974,35.378,10.97
2015-06-17 11:30,31.403,23.997,35.310,10.88
2015-06-17 12:00,31.426,24.030,35.255,10.79
2015-06-17 12:30,31.427,24.043,35.196,10.72
2015-06-17 13:00,31.444,24.065,35.170,10.67
2015-06-17 13:30,31.452,24.075,35.160,10.65
2015-06-17 14:00,31.493,24.132,35.071,10.50
2015-06-17 14:30,31.478,24.109,35.117,10.57
2015-06-17 15:00,31.478,24.081,35.256,10.73
2015-06-17 15:30,31.527,23.993,35.933,11.45
2015-06-17 16:00,31.511,23.981,35.917,11.45
2015-06-17 16:30,31.540,23.977,36.078,11.60
2015-06-17 17:00,31.540,23.850,36.683,12.29
2015-06-17 17:30,31.514,23.917,36.244,11.82
2015-06-17 18:00,31.495,23.764,36.874,12.56
2015-06-17 18:30,31.471,23.746,36.849,12.56
2015-06-17 19:00,31.510,23.776,36.890,12.56
2015-06-17 19:30,31.502,23.745,36.996,12.69
2015-06-17 20:00,31.525,23.770,36.985,12.65
2015-06-17 20:30,31.537,23.840,36.716,12.33